ATLAS CENTAUR 2 DEB, 3741

Orbit data source: Space-Track

ATLAS CENTAUR 2 DEB, 3741 is space debris in LEO originally from a launch on Wed, 27 Nov 1963 UTC launched from the Air Force Eastern Test Range (AFETR). Debris objects in space refer to the collection of defunct objects orbiting the Earth. Examples of debris include non-operational satellites, rocket bodies, and fragments generated from explosions, collisions, or faulty payload assembly.

Loading next visibility...
Identifier
3741, 1963-047L
Orbit
LEO
Country
Flag of USUS
Related business
Manufacturer
Unknown
Mission
Spacecraft
Bus & Motor
Unknown
Mass
Unknown
Launch date (UTC)
1963-11-27 (63 years ago)
Launch vehicle
Unknown
Launch site
Air Force Eastern Test Range (AFETR)
Object type
Payload
Rocket body
Debris
Shape & HBR
Unknown shape, 0.1 m
Radar Cross Section
Medium (>0.1 m² and <1 m²)

Expand to show TLE details & history
Last TLE update: 16 hours ago

TLE from 16 hours ago
0 ATLAS CENTAUR 2 DEB
1 03741U 63047L   26237.34238936  .00006816  00000-0  12810-2 0  9998
2 03741  29.8807 325.7033 0233724 260.3746  97.0378 14.47117916922821
Epoch: 2026-08-25T08:13Z
TLE epoch observation values (Epoch: 2026-08-25T08:13:02.440Z)
Latitude
0.00002°
Longitude
-131.16794°
Altitude
757.694 km
Speed
7.465 km/s
True Right ascension
21h 42m 48s
True Declination
0° 00' 00"
Sunlit
Object was in full shadow at epoch
Visualization orbit readout
Latitude
Unknown
Longitude
Unknown
Altitude
Unknown
Speed
Unknown
Apparent Right ascension
Unknown
Apparent Declination
Unknown
Sunlit
N/A
Visualization observer readout
Local Sidereal Time
15:53:08
Azimuth
Unknown
Elevation
Unknown
Doppler factor
Unknown
Orbital elements
Apogee altitude
905.317 km
Perigee altitude
572.629 km
Semi-major axis
7,117.11 km
Eccentricity
0.02337
Inclination
29.8807°
RAAN
325.7033°
Arg. of periapsis
260.3746°
True anomaly
99.68548°
Mean anomaly
97.0378°
Eccentric anomaly
98.3627°
Mean motion
3.61483 °/min
Orbital period
99.59 mins
BSTAR
0.001281
Loading maneuver chart data...
Computing Atmospheric mass density...

Documentation

Showing up to 5 results
|